Stations météo

réclame
Mon MeteoGroup
Barranda, Espagne (8365): Température de l'air & dewpoint: 10.08.2018 03:00:00 - 16.08.2018 03:00:00 (CEST)Barranda, Espagne (8365): Vitesse du vent & gusts: 10.08.2018 03:00:00 - 16.08.2018 03:00:00 (CEST)Barranda, Espagne (8365): Direction du vent: 10.08.2018 03:00:00 - 16.08.2018 03:00:00 (CEST)Barranda, Espagne (8365): reduced air pressure: 10.08.2018 03:00:00 - 16.08.2018 03:00:00 (CEST)Barranda, Espagne (8365): visibility: 10.08.2018 03:00:00 - 16.08.2018 03:00:00 (CEST)Barranda, Espagne (8365): Ensoleillement: 10.08.2018 03:00:00 - 16.08.2018 03:00:00 (CEST)Barranda, Espagne (8365): Quantités de précipitations: 10.08.2018 03:00:00 - 16.08.2018 03:00:00 (CEST)
Date & Time tt [°C] td [°C] ff [km/h] ff [knt] fx [km/h] fx [knt] dd ppp [hPa] vv [km] sd [min] rr [mm]
16.08.2018 03:00:00 17,9 14,8 8 4 11 6 WSW 1017,4 20 0 0,0
16.08.2018 02:00:00 17,0 14,4 4 2 13 7 SW 1018,2 20 0 -
16.08.2018 01:00:00 18,1 14,8 8 5 14 7 W 1017,7 20 0 0,0
16.08.2018 00:00:00 18,0 15,6 6 4 12 7 WNW 1017,3 20 0 0,0
15.08.2018 23:00:00 18,2 16,0 5 3 22 12 NNE 1017,4 20 0 0,2
15.08.2018 22:00:00 19,2 14,9 14 8 33 18 W 1015,1 20 0 1,8
15.08.2018 21:00:00 18,5 15,3 22 12 38 21 WSW 1017,5 16 0 1,0
15.08.2018 20:00:00 18,5 15,0 23 13 38 21 WSW 1017,0 20 0 -
15.08.2018 19:00:00 16,6 13,4 23 12 53 29 NNW 1017,0 3,0 0 2,8
15.08.2018 18:00:00 27,0 19,1 12 7 35 19 E 1013,9 20 8 0,0
15.08.2018 17:00:00 30,1 18,2 18 10 33 18 E 1012,2 17 25 0,0
15.08.2018 16:00:00 32,2 14,3 5 3 22 12 SSE 1012,6 20 43 0,0
15.08.2018 15:00:00 32,2 13,9 8 5 20 11 SSW 1013,5 20 38 0,0
15.08.2018 14:00:00 30,5 14,6 5 3 21 11 SSE 1014,7 20 34 -
15.08.2018 13:00:00 30,4 16,0 10 5 21 11 SW 1015,0 20 15 0,0
15.08.2018 12:00:00 27,3 16,9 5 3 14 8 WSW 1016,0 20 12 0,0
15.08.2018 11:00:00 25,3 17,5 3 2 8 5 SW 1016,6 20 12 0,0
15.08.2018 10:00:00 23,5 18,6 4 2 8 5 ENE 1017,1 18 0 0,0
15.08.2018 09:00:00 22,5 18,7 3 2 9 5 NNE 1017,2 20 0 0,0
15.08.2018 08:00:00 21,9 18,7 4 2 10 6 N 1017,1 17 0 -
15.08.2018 07:00:00 22,0 19,2 4 2 10 5 NE 1016,7 11 0 0,0
15.08.2018 06:00:00 21,7 19,1 3 2 9 5 N 1016,5 9 0 0,0
15.08.2018 05:00:00 22,3 19,3 5 3 11 6 NE 1016,3 10 0 0,0
15.08.2018 04:00:00 23,1 19,5 3 2 7 4 SE 1016,3 12 0 0,0
15.08.2018 03:00:00 23,5 19,6 4 2 8 4 SE 1016,3 13 0 0,0
15.08.2018 02:00:00 23,5 19,4 2 1 9 5 ENE 1016,6 16 0 -
15.08.2018 01:00:00 23,2 20,0 2 1 6 4 NE 1016,6 13 0 0,0
15.08.2018 00:00:00 23,3 19,8 3 2 11 6 N 1016,4 12 0 0,0
14.08.2018 23:00:00 24,2 19,9 5 3 14 7 ENE 1015,9 16 0 0,0
14.08.2018 22:00:00 26,2 19,1 8 5 15 8 WSW 1014,6 18 0 0,0
14.08.2018 21:00:00 27,4 18,7 3 2 13 7 WSW 1013,5 20 0 0,0
14.08.2018 20:00:00 29,1 17,6 8 4 24 13 SSW 1012,6 20 33 -
14.08.2018 19:00:00 29,4 15,5 6 3 35 19 S 1012,7 20 14 0,0
14.08.2018 18:00:00 30,9 17,2 12 6 27 15 ESE 1012,3 20 26 0,0
14.08.2018 17:00:00 33,5 14,0 12 7 30 16 E 1011,5 20 56 0,0
14.08.2018 16:00:00 32,7 13,4 16 8 29 16 E 1012,1 20 54 0,0
14.08.2018 15:00:00 34,5 12,2 10 6 24 13 ESE 1011,9 20 60 0,0
14.08.2018 14:00:00 33,4 10,0 8 4 21 11 ENE 1012,6 20 60 -
14.08.2018 13:00:00 32,5 11,1 9 5 21 12 E 1013,6 20 60 0,0
14.08.2018 12:00:00 30,8 10,2 8 4 16 9 ESE 1014,1 20 60 0,0
14.08.2018 11:00:00 29,1 11,2 9 5 16 9 ESE 1014,4 20 60 0,0
14.08.2018 10:00:00 27,3 11,8 8 4 14 7 E 1014,7 20 60 0,0
14.08.2018 09:00:00 23,0 11,7 1 1 7 4 NE 1015,8 20 60 0,0
14.08.2018 08:00:00 17,7 10,8 2 1 5 3 WNW 1016,4 20 8 -
14.08.2018 07:00:00 18,0 10,4 3 1 17 9 W 1015,3 20 0 0,0
14.08.2018 06:00:00 20,6 9,6 9 5 18 10 W 1013,8 20 0 0,0
14.08.2018 05:00:00 20,9 9,4 9 5 22 12 W 1013,8 20 0 0,0
14.08.2018 04:00:00 21,8 9,0 9 5 14 8 WSW 1013,5 20 0 0,0
14.08.2018 03:00:00 22,8 9,2 9 5 17 9 W 1013,5 20 0 0,0
14.08.2018 02:00:00 20,5 10,3 6 3 10 5 W 1014,2 20 0 -
14.08.2018 01:00:00 21,2 13,9 3 2 7 4 WNW 1013,7 20 0 0,0
14.08.2018 00:00:00 23,8 13,7 5 3 14 8 WSW 1012,5 20 0 0,0
13.08.2018 23:00:00 26,3 13,5 6 3 18 10 SW 1011,3 20 0 0,0
13.08.2018 22:00:00 27,5 13,5 9 5 19 10 WSW 1010,5 20 0 0,0
13.08.2018 21:00:00 29,0 12,4 11 6 24 13 WSW 1009,7 20 0 0,0
13.08.2018 20:00:00 30,9 12,7 8 4 31 17 W 1008,9 20 4 -
13.08.2018 19:00:00 33,3 6,5 10 5 16 9 ENE 1007,8 20 14 0,0
13.08.2018 18:00:00 33,7 9,7 6 4 19 10 E 1007,6 20 20 0,0
13.08.2018 17:00:00 35,1 9,6 5 3 19 10 N 1008,0 20 38 0,0
13.08.2018 16:00:00 33,9 9,2 8 4 21 11 ENE 1008,8 20 36 0,0
13.08.2018 15:00:00 35,8 10,0 6 4 27 14 NNW 1008,8 20 58 0,0
13.08.2018 14:00:00 32,5 12,2 9 5 22 12 NNE 1010,4 20 55 -
13.08.2018 13:00:00 33,4 13,0 8 5 17 9 ENE 1010,8 17 60 0,0
13.08.2018 12:00:00 31,2 13,9 5 3 16 9 S 1011,9 20 50 0,0
13.08.2018 11:00:00 28,2 16,1 9 5 21 11 SW 1012,6 20 60 0,0
13.08.2018 10:00:00 24,6 17,6 10 6 21 12 WSW 1013,8 15 60 0,0
13.08.2018 09:00:00 23,2 17,6 13 7 21 11 WSW 1013,9 15 51 0,0
13.08.2018 08:00:00 21,9 17,5 9 5 16 9 WSW 1014,2 16 0 -
13.08.2018 07:00:00 21,4 17,6 8 4 12 6 W 1014,0 18 0 0,0
13.08.2018 06:00:00 21,0 17,6 3 1 5 3 NW 1013,9 18 0 0,0
13.08.2018 05:00:00 20,2 17,2 3 1 10 5 NNW 1014,2 18 0 0,0
13.08.2018 04:00:00 21,3 18,7 3 1 12 6 S 1014,2 9 0 0,0
13.08.2018 03:00:00 21,9 16,6 6 3 8 5 WSW 1014,0 20 0 0,0
13.08.2018 02:00:00 23,1 18,0 3 2 10 6 WSW 1014,2 20 0 -
13.08.2018 01:00:00 24,2 16,7 8 4 12 6 W 1013,4 20 0 0,0
13.08.2018 00:00:00 25,7 16,6 5 3 21 11 SSW 1013,2 20 0 0,0
12.08.2018 23:00:00 26,8 17,0 9 5 21 11 SW 1013,1 20 0 0,0
12.08.2018 22:00:00 27,5 15,8 4 2 19 10 SW 1012,1 20 0 0,0
12.08.2018 21:00:00 28,2 15,5 8 4 18 10 WSW 1011,9 20 0 0,0
12.08.2018 20:00:00 28,8 17,4 2 1 29 16 NNW 1011,5 20 0 -
12.08.2018 19:00:00 30,8 16,0 11 6 29 16 SSE 1010,7 19 23 0,0
12.08.2018 18:00:00 33,9 13,9 16 8 31 17 E 1010,1 20 59 0,0
12.08.2018 17:00:00 34,6 13,9 11 6 35 19 ESE 1010,5 20 60 0,0
12.08.2018 16:00:00 34,4 14,3 11 6 26 14 E 1011,2 20 60 0,0
12.08.2018 15:00:00 34,2 13,7 11 6 23 12 E 1012,5 20 60 0,0
12.08.2018 14:00:00 33,9 12,8 10 5 21 12 E 1013,3 20 60 -
12.08.2018 13:00:00 32,9 12,5 7 4 17 9 ESE 1014,1 20 60 0,0
12.08.2018 12:00:00 29,9 11,9 6 4 16 9 ENE 1015,4 20 60 0,0
12.08.2018 11:00:00 28,6 12,4 6 4 10 5 E 1015,4 20 60 0,0
12.08.2018 10:00:00 25,8 13,9 4 2 8 5 SSE 1016,5 20 60 0,0
12.08.2018 09:00:00 21,8 14,2 3 1 6 3 S 1017,8 20 60 0,0
12.08.2018 08:00:00 17,2 13,0 3 1 10 6 NW 1018,9 20 6 -
12.08.2018 07:00:00 17,2 13,0 7 4 11 6 W 1018,5 20 0 0,0
12.08.2018 06:00:00 17,5 13,3 3 2 10 5 NW 1018,5 20 0 0,0
12.08.2018 05:00:00 18,8 14,0 7 4 12 6 W 1018,4 20 0 0,0
12.08.2018 04:00:00 19,1 12,3 0 0 10 6 N 1018,9 20 0 0,0
12.08.2018 03:00:00 18,6 11,9 6 3 9 5 WNW 1019,6 20 0 0,0
12.08.2018 02:00:00 18,9 11,2 2 1 5 3 W 1020,0 20 0 -
12.08.2018 01:00:00 20,7 9,3 3 1 13 7 NNW 1019,9 20 0 0,0
12.08.2018 00:00:00 21,3 10,4 4 2 11 6 NNW 1019,8 20 0 0,0
11.08.2018 23:00:00 22,7 12,6 6 3 10 5 N 1019,6 20 0 0,0
11.08.2018 22:00:00 24,0 14,1 5 3 15 8 NNE 1019,1 20 0 0,0
11.08.2018 21:00:00 25,4 14,8 6 3 17 9 NE 1018,1 20 0 0,0
11.08.2018 20:00:00 26,9 15,3 8 5 28 15 E 1017,3 20 0 -
11.08.2018 19:00:00 28,5 14,7 13 7 36 19 ESE 1016,6 20 7 0,0
11.08.2018 18:00:00 30,4 16,0 17 9 29 16 E 1016,1 20 41 0,0
11.08.2018 17:00:00 31,1 17,1 14 8 26 14 ENE 1016,3 20 52 0,0
11.08.2018 16:00:00 31,8 17,3 10 5 28 15 E 1017,0 20 47 0,0
11.08.2018 15:00:00 29,9 17,7 12 7 26 14 ENE 1018,2 20 38 0,0
11.08.2018 14:00:00 30,8 15,6 8 5 29 15 ENE 1018,6 20 54 -
11.08.2018 13:00:00 29,6 15,7 13 7 27 15 E 1019,8 20 59 0,0
11.08.2018 12:00:00 27,9 18,3 9 5 21 12 E 1020,8 20 51 0,0
11.08.2018 11:00:00 25,5 17,7 9 5 20 11 ENE 1021,1 20 54 0,0
11.08.2018 10:00:00 25,0 17,5 8 4 18 10 E 1021,2 20 52 0,0
11.08.2018 09:00:00 23,3 17,9 2 1 6 4 NE 1021,3 20 24 0,0
11.08.2018 08:00:00 20,6 17,8 4 2 9 5 NW 1021,5 16 0 -
11.08.2018 07:00:00 20,4 18,0 3 1 6 3 WSW 1021,4 9 0 0,0
11.08.2018 06:00:00 21,4 18,6 3 2 8 5 NNW 1021,2 13 0 0,0
11.08.2018 05:00:00 - - - - - - - - - - -
11.08.2018 04:00:00 21,8 18,8 3 2 8 5 ENE 1021,3 15 0 0,0
11.08.2018 03:00:00 21,9 18,7 3 1 6 4 S 1021,5 14 0 0,0
11.08.2018 02:00:00 21,7 18,7 3 1 8 4 NNW 1021,9 13 0 -
11.08.2018 01:00:00 22,1 18,5 4 2 8 5 N 1022,1 18 0 0,0
11.08.2018 00:00:00 22,8 18,2 2 1 20 11 NE 1021,7 20 0 0,0
10.08.2018 23:00:00 24,0 18,2 8 4 18 10 NE 1021,4 20 0 0,0
10.08.2018 22:00:00 24,3 18,2 3 2 20 11 NNE 1020,0 20 0 0,0
10.08.2018 21:00:00 25,3 18,0 12 6 27 15 E 1019,3 20 0 0,0
10.08.2018 20:00:00 26,4 16,9 15 8 31 17 E 1018,6 20 0 -
10.08.2018 19:00:00 28,6 15,2 16 8 31 17 E 1017,5 20 31 0,0
10.08.2018 18:00:00 30,1 14,6 18 10 32 18 E 1016,7 20 55 0,0
10.08.2018 17:00:00 29,9 15,6 12 7 31 17 E 1017,1 20 26 0,0
10.08.2018 16:00:00 32,1 15,2 14 7 29 15 E 1016,6 20 58 0,0
10.08.2018 15:00:00 31,2 15,6 13 7 30 16 ENE 1017,3 20 49 0,0
10.08.2018 14:00:00 29,4 15,5 12 6 25 13 E 1018,1 20 53 -
10.08.2018 13:00:00 28,5 17,7 11 6 23 12 E 1018,6 20 60 0,0
10.08.2018 12:00:00 27,9 18,3 11 6 23 13 E 1019,1 20 60 0,0
10.08.2018 11:00:00 24,8 18,2 9 5 18 10 E 1019,6 18 34 0,0
10.08.2018 10:00:00 24,0 18,6 8 4 15 8 ENE 1019,4 13 30 0,0
10.08.2018 09:00:00 23,5 18,8 4 2 12 7 ENE 1019,3 10 41 0,0
10.08.2018 08:00:00 21,7 18,9 5 3 12 6 NE 1019,3 7 0 -
10.08.2018 07:00:00 21,4 19,0 4 2 11 6 NNE 1018,5 6 0 0,0
10.08.2018 06:00:00 21,8 18,8 6 4 16 8 E 1017,9 8 0 0,0
10.08.2018 05:00:00 21,6 18,8 6 3 13 7 ENE 1017,5 9 0 0,0
10.08.2018 04:00:00 21,0 18,4 5 3 9 5 N 1017,1 11 0 0,0
10.08.2018 03:00:00 20,7 17,5 4 2 8 4 NNW 1016,9 13 0 0,0

tt = Température de l'air
td = dewpoint
ff = Vitesse du vent
fx = gusts
dd = Direction du vent
ppp = reduced air pressure
vv = visibility
sd = Ensoleillement
rr = Quantités de précipitations

stations d'obs. à proximité